Showing default

CONNECTA IOT-4, 60524

Orbit data source: Space-Track

CONNECTA IOT-4, 60524 is a payload satellite owned by Plan-S (TR) in SSO that was launched on Fri, 16 Aug 2024 UTC via an FALCON 9 launch vehicle from the Air Force Western Test Range (AFWTR). Payload-class satellites include a variety of spacecraft equipped with specific instruments for various scientific and technological missions. These include communications satellites like Starlink; space stations such as the ISS; scientific satellites like the Hubble; Earth observation satellites from companies like Planet Labs, Umbra, and HawkEye 360; GPS; miniature CubeSats for education and research; and military/defense satellites.

Loading next visibility...
Identifier
60524, 2024-149BJ
Orbit
SSO
Country
Flag of TRTR / TURK
Related business
Manufacturer
Plan-S
Mission
Operational Commercial Communications
Bus & Motor
CUBESAT 6U, Unknown motor
Mass
10 kg wet, 10 kg dry
Launch date (UTC)
2024-08-16 (2 years ago)
Launch vehicle
FALCON 9
Launch site
Air Force Western Test Range (AFWTR)
Object type
Payload
Rocket body
Debris
Shape & HBR
Box, 2.2 m
Radar Cross Section
0.080 m², Medium (>0.1 m² and < 1m²)

Expand to show TLE details & history
Last TLE update: 2 days ago

TLE from 2 days ago
0 CONNECTA IOT-4
1 60524U 24149BJ  26173.20336971  .00015178  00000-0  35423-3 0  9999
2 60524  97.3793 257.6331 0004200 260.6701  99.4072 15.42298517103102
Epoch: 2026-06-22T04:52Z
TLE epoch observation values (Epoch: 2026-06-22T04:52:51.142Z)
Latitude
Longitude
-85.97265°
Altitude
442.918 km
Speed
7.646 km/s
True Right ascension
17h 10m 31s
True Declination
0° 00' 00"
Sunlit
Object was in full shadow at epoch
Visualization orbit readout
Latitude
Unknown
Longitude
Unknown
Altitude
Unknown
Speed
Unknown
Apparent Right ascension
Unknown
Apparent Declination
Unknown
Sunlit
N/A
Visualization observer readout
Local Sidereal Time
13:52:59
Azimuth
Unknown
Elevation
Unknown
Doppler factor
Unknown
Orbital elements
Apogee altitude
439.124 km
Perigee altitude
433.4 km
Semi-major axis
6,814.399 km
Eccentricity
0.00042
Inclination
97.3793°
RAAN
257.6331°
Arg. of periapsis
260.6701°
True anomaly
99.45468°
Mean anomaly
99.4072°
Eccentric anomaly
99.43094°
Mean motion
3.85835 °/min
Orbital period
93.3 mins
BSTAR
0.00035423
Loading maneuver chart data...
Computing Atmospheric mass density...
Loading historical data...
Loading historical data...
Loading historical data...
Loading historical data...
Loading historical data...
Loading historical data...
Loading historical data...

Documentation

Showing up to 5 results
|